Simultaneous Nadir Overpasses (SNOs) Predictions

Prediction of SNOs between AQUA and METOP-A Satellite Orbit:

Table of predicted SNOs for the next 14.0 days since TLE Epoch: 3/27/2020
Index Date (AQUA) Time (AQUA) Lat,Lon (AQUA) SZA (AQUA ) Date (METOP-A) Time (METOP-A) Lat,Lon (METOP-A) SZA (METOP-A ) Distance(km) Time Diff (sec)
1 03/29/2020 08:13:05 76.04, 45.43 72.69 03/29/2020 08:12:40 76.04, 45.37 72.71 1.63 25
2 03/29/2020 09:02:32 -76.11,-147.14 107.25 03/29/2020 09:03:20 -76.11,-147.07 107.26 1.90 48
3 04/01/2020 03:47:21 76.06, 111.79 71.62 04/01/2020 03:47:02 76.08, 111.84 71.64 1.99 19
4 04/01/2020 04:36:48 -76.13, -80.78 108.32 04/01/2020 04:37:43 -76.10, -80.74 108.36 3.46 55
5 04/03/2020 22:32:02 -75.73, 11.61 109.84 04/03/2020 22:30:53 -75.69, 9.64 109.75 54.13 69
6 04/03/2020 23:21:37 76.10, 178.13 70.57 04/03/2020 23:21:25 76.06, 178.16 70.54 3.68 12
7 04/04/2020 00:11:02 -76.12, -14.29 109.43 04/04/2020 00:12:04 -76.14, -14.26 109.41 3.08 62
8 04/06/2020 18:06:22 -76.01, 77.19 110.59 04/06/2020 18:05:09 -75.97, 76.86 110.60 10.35 73
9 04/06/2020 18:55:51 76.09,-115.40 69.48 04/06/2020 18:55:46 76.10,-115.38 69.50 1.48 5
10 04/06/2020 19:45:18 -76.15, 52.03 110.46 04/06/2020 19:46:27 -76.13, 52.07 110.49 2.46 69
11 04/09/2020 13:40:38 -76.05, 143.50 111.60 04/09/2020 13:39:30 -76.05, 143.48 111.59 0.76 68
12 04/09/2020 14:30:06 76.08, -48.95 68.42 04/09/2020 14:30:09 76.08, -49.07 68.43 3.36 3




NCC Satellite Simultaneous Nadir Overpasses (SNOs) Prediction Service
